This is the latest recevied weather packets stored in our database for station/object DG7FDL-7. If no packets are shown the sender has not sent any weather packets the latest 10 day(s).
| Time | Temp. | Humidity | Pressure | Rain* | Wind** | Luminosity | Snow |
|---|---|---|---|---|---|---|---|
| 1777938767 | 23.33° C | 43% | 1013.4 hPa | - | - | - | - |
| 1777937867 | 22.78° C | 45% | 1013.4 hPa | - | - | - | - |
| 1777936967 | 22.22° C | 45% | 1013.5 hPa | - | - | - | - |
| 1777936067 | 23.33° C | 44% | 1013.7 hPa | - | - | - | - |
| 1777935167 | 23.33° C | 44% | 1013.8 hPa | - | - | - | - |
| 1777934281 | 23.89° C | 43% | 1013.9 hPa | - | - | - | - |
| 1777933366 | 24.44° C | 42% | 1014 hPa | - | - | - | - |
| 1777932466 | 25.56° C | 40% | 1014.1 hPa | - | - | - | - |
| 1777931566 | 26.11° C | 39% | 1014.1 hPa | - | - | - | - |
| 1777930676 | 25.56° C | 40% | 1014.1 hPa | - | - | - | - |
| 1777929769 | 25° C | 40% | 1014.2 hPa | - | - | - | - |
| 1777928869 | 25° C | 41% | 1014.2 hPa | - | - | - | - |
| 1777927961 | 25° C | 41% | 1014.2 hPa | - | - | - | - |
| 1777926161 | 25° C | 40% | 1014.3 hPa | - | - | - | - |
| 1777925261 | 25° C | 41% | 1014.3 hPa | - | - | - | - |
| 1777924361 | 25° C | 41% | 1014.3 hPa | - | - | - | - |
| 1777923464 | 25° C | 41% | 1014 hPa | - | - | - | - |
| 1777922582 | 25° C | 41% | 1013.9 hPa | - | - | - | - |
| 1777921660 | 25° C | 41% | 1013.9 hPa | - | - | - | - |
| 1777920762 | 25° C | 41% | 1014.1 hPa | - | - | - | - |
| 1777918960 | 25° C | 41% | 1013.7 hPa | - | - | - | - |
| 1777918060 | 25° C | 41% | 1013.5 hPa | - | - | - | - |
| 1777917164 | 25° C | 41% | 1013.5 hPa | - | - | - | - |
| 1777916260 | 25° C | 41% | 1013.5 hPa | - | - | - | - |
| 1777915361 | 25° C | 40% | 1013.3 hPa | - | - | - | - |
* Rain since midnight (hover to see other rain measurements)
** Current wind speed in m/s (hover to see current wind gust speed)